FW93366 Weather Reports


Display with metric or nautical units.
time (UTC)temp
F
wind
direction
speed
MPH
gust
MPH
rain 1hr
in
rain 24hr
in
rain mn
in
humidity
%
barometer
mb
20260905184558 70 196 6.0 16.0 0.00 0.00 0.00 33 1016.5
20260905183050 69 292 0.0 5.0 0.00 0.00 0.00 41 1016.7
20260905181601 68 177 1.0 6.0 0.00 0.00 0.00 42 1016.8
20260905180100 67 0 1.0 4.0 0.00 0.00 0.00 45 1016.8
20260905174549 66 213 2.0 6.0 0.00 0.00 0.00 43 1017.1
20260905173056 67 0 0.0 1.0 0.00 0.00 0.00 44 1017.2
20260905171552 64 0 0.0 3.0 0.00 0.00 0.00 47 1017.4
20260905170100 63 236 0.0 3.0 0.00 0.00 0.00 50 1017.3
20260905164550 63 15 0.0 4.0 0.00 0.00 0.00 50 1017.4
20260905163052 61 0 0.0 0.0 0.00 0.00 0.00 53 1017.5
20260905161551 58 0 0.0 0.0 0.00 0.00 0.00 59 1017.6
20260905160051 57 326 0.0 2.0 0.00 0.00 0.00 59 1017.6
20260905154557 56 0 0.0 2.0 0.00 0.00 0.00 64 1017.7
20260905153051 53 0 0.0 0.0 0.00 0.00 0.00 66 1017.7
20260905151558 51 0 0.0 0.0 0.00 0.00 0.00 69 1017.7
20260905150100 48 0 0.0 2.0 0.00 0.00 0.00 74 1017.8
20260905144554 46 0 0.0 0.0 0.00 0.00 0.00 78 1017.8
20260905143100 45 0 0.0 1.0 0.00 0.00 0.00 77 1017.8
20260905141553 44 0 0.0 2.0 0.00 0.00 0.00 79 1017.6
20260905134600 44 0 0.0 3.0 0.00 0.00 0.00 79 1017.3
20260905133055 45 0 0.0 5.0 0.00 0.00 0.00 77 1017.2
20260905131555 46 0 0.0 0.0 0.00 0.00 0.00 75 1017.0
20260905130056 46 0 0.0 6.0 0.00 0.00 0.00 76 1016.9
20260905124556 45 0 0.0 3.0 0.00 0.00 0.00 76 1016.8
20260905123056 45 297 0.0 7.0 0.00 0.00 0.00 76 1016.9
20260905121550 44 0 0.0 7.0 0.00 0.00 0.00 78 1016.7
20260905120049 44 0 0.0 3.0 0.00 0.00 0.00 77 1017.0
20260905114555 45 0 0.0 2.0 0.00 0.00 0.00 76 1016.8
20260905113048 46 260 0.0 7.0 0.00 0.00 0.00 75 1016.8
20260905111640 45 0 0.0 8.0 0.00 0.00 0.00 76 1016.9
20260905110045 46 150 0.0 6.0 0.00 0.00 0.00 73 1016.9
20260905104550 47 0 0.0 3.0 0.00 0.00 0.00 73 1016.7
20260905103049 47 0 0.0 3.0 0.00 0.00 0.00 72 1016.7
20260905101556 48 0 0.0 4.0 0.00 0.00 0.00 71 1016.8
20260905100108 49 0 0.0 3.0 0.00 0.00 0.00 70 1016.9
20260905094556 49 346 0.0 3.0 0.00 0.00 0.00 69 1017.0
20260905093053 49 18 0.0 4.0 0.00 0.00 0.00 69 1016.8
20260905091547 50 0 0.0 2.0 0.00 0.00 0.00 66 1017.0
20260905090050 52 0 0.0 0.0 0.00 0.00 0.00 64 1016.7
20260905084551 54 0 0.0 1.0 0.00 0.00 0.00 62 1016.9
20260905083046 52 0 0.0 2.0 0.00 0.00 0.00 64 1016.8
20260905081604 52 0 1.0 6.0 0.00 0.00 0.00 64 1017.0
20260905080059 52 0 0.0 4.0 0.00 0.00 0.00 64 1016.9
20260905074548 52 0 0.0 0.0 0.00 0.00 0.00 64 1017.1
20260905073050 52 0 0.0 7.0 0.00 0.00 0.00 61 1016.7
20260905071547 52 211 0.0 4.0 0.00 0.00 0.00 62 1016.8
20260905070100 52 0 0.0 2.0 0.00 0.00 0.00 63 1016.9
20260905064550 52 0 0.0 4.0 0.00 0.00 0.00 64 1016.7
20260905063059 52 0 0.0 0.0 0.00 0.00 0.00 63 1016.7
20260905061611 54 0 0.0 0.0 0.00 0.00 0.00 61 1016.5
20260905060100 55 0 0.0 1.0 0.00 0.00 0.00 59 1016.3
20260905054551 55 0 0.0 2.0 0.00 0.00 0.00 60 1016.3
20260905053058 55 0 0.0 3.0 0.00 0.00 0.00 60 1016.1
20260905051554 55 0 0.0 6.0 0.00 0.00 0.00 58 1015.8
20260905044600 57 0 0.0 3.0 0.00 0.00 0.00 55 1015.7
20260905043048 57 294 4.0 9.0 0.00 0.00 0.00 55 1015.6
20260905041551 58 271 1.0 6.0 0.00 0.00 0.00 53 1015.7
20260905040052 57 0 0.0 10.0 0.00 0.00 0.00 54 1015.6
20260905034548 57 0 0.0 4.0 0.00 0.00 0.00 55 1015.5
20260905033048 58 223 1.0 4.0 0.00 0.00 0.00 55 1015.5
20260905031556 58 0 0.0 3.0 0.00 0.00 0.00 54 1015.2
20260905024558 60 0 1.0 7.0 0.00 0.00 0.00 50 1015.1
20260905023058 60 163 2.0 9.0 0.00 0.00 0.00 50 1015.1
20260905021555 61 169 2.0 13.0 0.00 0.00 0.00 48 1015.0
20260905020100 62 157 4.0 9.0 0.00 0.00 0.00 47 1015.0
20260905014556 63 153 1.0 11.0 0.00 0.00 0.00 46 1015.0
20260905013050 64 180 6.0 17.0 0.00 0.00 0.00 45 1015.1
20260905011549 63 166 5.0 12.0 0.00 0.00 0.00 46 1015.0
20260905010113 63 196 4.0 15.0 0.00 0.00 0.00 46 1015.1
20260905004613 64 174 4.0 21.0 0.00 0.00 0.00 46 1014.8
20260905003056 64 169 7.0 17.0 0.00 0.00 0.00 45 1014.6
20260905001558 64 172 6.0 16.0 0.00 0.00 0.00 45 1014.6
20260905000051 65 154 8.0 20.0 0.00 0.00 0.00 43 1014.5
20260904234548 65 200 10.0 20.0 0.00 0.00 0.00 42 1014.4
20260904233052 66 161 9.0 20.0 0.00 0.00 0.00 42 1014.5
20260904231551 65 173 5.0 17.0 0.00 0.00 0.00 43 1014.3
20260904230052 65 180 6.0 16.0 0.00 0.00 0.00 43 1014.5
20260904224552 65 203 9.0 22.0 0.00 0.00 0.00 43 1014.5
20260904223046 66 178 9.0 21.0 0.00 0.00 0.00 43 1014.5
20260904221601 66 171 7.0 20.0 0.00 0.00 0.00 41 1014.2
20260904220056 66 198 7.0 19.0 0.00 0.00 0.00 42 1014.3
20260904214554 67 167 11.0 27.0 0.00 0.00 0.00 40 1014.3
20260904213053 67 238 9.0 20.0 0.00 0.00 0.00 41 1014.3
20260904211550 67 165 12.0 23.0 0.00 0.00 0.00 41 1014.3
20260904210052 67 226 6.0 17.0 0.00 0.00 0.00 42 1014.3
20260904204556 67 185 5.0 17.0 0.00 0.00 0.00 43 1014.3
20260904203050 66 191 8.0 21.0 0.00 0.00 0.00 43 1014.4
20260904201552 65 200 13.0 22.0 0.00 0.00 0.00 44 1014.3
20260904200047 65 156 10.0 22.0 0.00 0.00 0.00 44 1014.3
20260904194559 65 196 14.0 27.0 0.00 0.00 0.00 44 1014.4
20260904193054 65 191 10.0 28.0 0.00 0.00 0.00 45 1014.3
20260904191546 65 181 11.0 22.0 0.00 0.00 0.00 44 1014.4
20260904190056 65 195 10.0 20.0 0.00 0.00 0.00 44 1014.4